User: anonymous   Login
Location: Whispering Pines Observatory
(39.4020°N, 104.7430°W)
Time: 23:27:48
(UTC-06:00)
Language:

MOS 1 Rocket - Orbit

View from above orbital plane
View from above orbital plane
View from above satellite
View from above satellite

Ground track
Ground track

The orbit data is extracted from the following two-line orbital elements,

1 17528U 87018B   17083.93786604 +.00000133 +00000-0 +38780-4 0  9996
2 17528 097.4417 050.5873 0151559 200.8066 235.7323 14.50753782567042
Epoch (UTC): 24 March 2017 22:30:31
Eccentricity: 0.0151559
inclination: 97.4417°
perigee height: 615 km
apogee height: 831 km
right ascension of ascending node: 50.5873°
argument of perigee: 200.8066°
revolutions per day: 14.50753782
mean anomaly at epoch: 235.7323°
orbit number at epoch: 56704

The dashed part of the orbit path shows where the satellite is in the earth's shadow,  

DLR